Location: Hillsman's Observatory
(38.8566°N, 93.9398°W)
Time: 17:45:18
(UTC-05:00)

OTV 5 (USA 277) - Visible Passes

Search period start: 24 June 2018 00:00
Search period end: 04 July 2018 00:00
Orbit: 313 x 320 km, 54.5° (Epoch: 21 June)

Date Brightness Start Highest point End Pass type
(mag) Time Alt. Az. Time Alt. Az. Time Alt. Az.
26 Jun ? 23:55:59 10° N 23:56:47 13° NNE 23:56:47 13° NNE visible
28 Jun ? 00:09:40 10° NNW 00:10:14 14° NNW 00:10:14 14° NNW visible
29 Jun ? 23:04:31 10° NNW 23:06:27 19° NNE 23:06:27 19° NNE visible
30 Jun ? 23:18:29 10° NW 23:20:03 28° NNW 23:20:03 28° NNW visible
01 Jul ? 21:59:34 10° N 22:00:59 13° NNE 22:02:24 10° ENE visible
01 Jul ? 23:32:53 10° WNW 23:33:42 17° WNW 23:33:42 17° WNW visible
02 Jul ? 22:13:13 10° NNW 22:15:37 28° NE 22:16:33 22° ENE visible
03 Jul ? 22:27:24 10° NW 22:30:06 86° NE 22:30:19 72° ESE visible
